Flag for Germany Weather past 2 weeks in Ettlingen, Baden-Württemberg, Germany

Now
81 °F

Passing clouds.


Feels Like: 80 °F
Forecast: 63 / 96 °F
Wind: 6 mph from North

Location: Karlsruhe - Baden Wurttemberg

Current Time: Jul 6, 2015 at 1:33:48 PM

Latest Report: Jul 6, 2015 at 1:20 PM


Visibility: N/A

Pressure: 30.15 "Hg

Humidity: 37%

Dew point: 52 °F

Location of EttlingenLocation

Historic Weather in Ettlingen — Graph

°F

Ettlingen temperature yesterday

Maximum temperature yesterday: 100 °F (at 3:50 PM)
Minimum temperature yesterday: 70 °F (at 4:50 AM)
Average temperature yesterday: 88 °F

Past Weeks' High & Low Weather Summary

 TemperatureHumidityPressure
High100 °F (Jul 4, 4:50 PM)94% (Jun 21, 10:20 PM)30.21 "Hg (Jun 21, 10:20 PM)
Low48 °F (Jun 23, 6:20 AM)22% (Jul 4, 4:50 PM)29.74 "Hg (Jun 22, 7:50 PM)
Average73 °F56%30.09 "Hg
* Reported Jun 21 12:20 PM — Jul 6 12:20 PM, Ettlingen, Weather by CustomWeather, © 2015

Note: Actual official high and low records may vary slightly from our data, if they occured in-between our weather recording intervals... More about our weather records

Advertising

Ettlingen weather history for previous 24 hours

 ConditionsComfort  
Time TempWeatherWind HumidityBarometerVisibility
12:20 PM
Mon, Jul 6
79 °FSunny.5 mph37%30.18 "Hg10 mi
11:50 AM77 °FSunny.3 mph39%30.18 "Hg10 mi
11:20 AM77 °FSunny.5 mph39%30.21 "Hg10 mi
10:50 AM77 °FSunny.2 mph39%30.21 "Hg10 mi
10:20 AM75 °FSunny.3 mph41%30.21 "Hg10 mi
9:50 AM75 °FSunny.2 mph39%30.21 "Hg10 mi
9:20 AM73 °FSunny.3 mph47%30.21 "Hg10 mi
8:50 AM72 °FSunny.2 mph61%30.21 "Hg10 mi
8:20 AM72 °FSunny.3 mph61%30.21 "Hg10 mi
7:50 AM68 °FSunny.5 mph69%30.21 "Hg10 mi
7:20 AM66 °FScattered clouds.3 mph73%30.18 "HgN/A
6:50 AM66 °FScattered clouds.5 mph73%30.18 "HgN/A
6:20 AM68 °FPassing clouds.2 mph69%30.18 "HgN/A
5:20 AM70 °FPassing clouds.2 mph69%30.18 "HgN/A
4:50 AM70 °FClear.3 mph69%30.15 "Hg10 mi
11:50 PM
Sun, Jul 5
81 °FPassing clouds.7 mph51%30.01 "HgN/A
11:20 PM84 °FPassing clouds.8 mph43%30.01 "HgN/A
10:50 PM84 °FPassing clouds.5 mph40%29.98 "HgN/A
10:20 PM86 °FPassing clouds.7 mph40%29.95 "HgN/A
9:50 PM88 °FSunny.9 mph38%29.95 "Hg10 mi
9:20 PM90 °FBroken clouds.12 mph33%29.89 "HgN/A
8:50 PM91 °FBroken clouds.5 mph36%29.89 "HgN/A
8:20 PM93 °FScattered showers. Broken clouds.7 mph34%29.86 "HgN/A
7:50 PM95 °FSunny.5 mph28%29.86 "Hg10 mi
7:20 PM99 °FSunny.7 mph24%29.86 "Hg10 mi
6:50 PM99 °FSunny.8 mph24%29.86 "Hg10 mi
6:20 PM99 °FSunny.8 mph24%29.86 "Hg10 mi
5:50 PM100 °FSunny.7 mph24%29.86 "Hg10 mi
5:20 PM100 °FSunny.7 mph22%29.89 "Hg10 mi
4:50 PM99 °FSunny.6 mph25%29.89 "Hg10 mi
4:20 PM100 °FSunny.8 mph24%29.92 "Hg10 mi
3:50 PM100 °FPassing clouds.10 mph22%29.92 "HgN/A
3:20 PM99 °FSunny.9 mph25%29.95 "Hg10 mi
2:50 PM99 °FPassing clouds.8 mph25%29.95 "HgN/A
2:20 PM97 °FSunny.7 mph28%29.95 "Hg10 mi
1:50 PM97 °FSunny.7 mph28%29.98 "Hg10 mi
1:20 PM95 °FPassing clouds.7 mph32%29.98 "HgN/A
Weather by CustomWeather, © 2015

See weather overviewHow to use our weather pages